ARG110 SARP-SBRJ

Flight info

Callsign ARG110
Flight time 1h 46m
Altitude 37000
Route SARP/20 DCT NAIDE DCT VUNEG DCT TEGET UM400 ROPAS ROPA1A SBRJ/20L
Aircraft B738/M-SDE2E3FGHIRWXY/LB1

Departure

Time 2026-04-14 03:11
Airport Libertador Gral D Jose De San Martin Airport (SARP)

Arrival

Time 2026-04-14 04:57
Airport Santos Dumont Airport (SBRJ)
Time Latitude Longitude Altitude Speed Heading
2026-04-14 02:29 -27.39153 -55.96726 420 ft 0 kts 117°
2026-04-14 02:52 -27.39152 -55.96729 420 ft 2 kts 109°
2026-04-14 02:52 -27.39150 -55.96742 413 ft 1 kts 67°
2026-04-14 02:52 -27.39156 -55.96752 417 ft 1 kts 45°
2026-04-14 02:52 -27.39164 -55.96760 422 ft 1 kts 23°
2026-04-14 02:53 -27.39153 -55.96726 421 ft 0 kts 117°
2026-04-14 03:03 -27.39150 -55.96734 411 ft 2 kts 88°
2026-04-14 03:04 -27.39154 -55.96751 418 ft 2 kts 51°
2026-04-14 03:04 -27.39166 -55.96764 409 ft 2 kts 27°
2026-04-14 03:04 -27.39182 -55.96770 418 ft 2 kts 11°
2026-04-14 03:04 -27.39188 -55.96772 413 ft 0 kts
2026-04-14 03:07 -27.39153 -55.96774 413 ft 10 kts 354°
2026-04-14 03:08 -27.39096 -55.96838 416 ft 16 kts 275°
2026-04-14 03:08 -27.39049 -55.96952 417 ft 18 kts 328°
2026-04-14 03:08 -27.38939 -55.97022 414 ft 19 kts 339°
2026-04-14 03:08 -27.38786 -55.97049 413 ft 25 kts
2026-04-14 03:09 -27.38591 -55.97055 413 ft 31 kts 357°
2026-04-14 03:09 -27.38357 -55.97058 414 ft 36 kts 359°
2026-04-14 03:09 -27.38094 -55.97063 412 ft 39 kts 359°
2026-04-14 03:09 -27.37819 -55.97064 419 ft 37 kts
2026-04-14 03:10 -27.37619 -55.96973 417 ft 18 kts 352°
2026-04-14 03:10 -27.37584 -55.97062 421 ft 10 kts 232°
2026-04-14 03:10 -27.37621 -55.97068 415 ft 9 kts 183°
2026-04-14 03:10 -27.37786 -55.97064 414 ft 59 kts 179°
2026-04-14 03:11 -27.38489 -55.97050 410 ft 143 kts 179°
2026-04-14 03:11 -27.39709 -55.97055 736 ft 191 kts 178°
2026-04-14 03:11 -27.40943 -55.96678 1954 ft 182 kts 141°
2026-04-14 03:11 -27.41886 -55.95904 3165 ft 164 kts 134°
2026-04-14 03:12 -27.42729 -55.94927 3567 ft 190 kts 116°
2026-04-14 03:12 -27.43395 -55.93519 3811 ft 222 kts 109°
2026-04-14 03:12 -27.43965 -55.91752 4065 ft 253 kts 107°
2026-04-14 03:12 -27.44607 -55.89859 4813 ft 263 kts 110°
2026-04-14 03:13 -27.45361 -55.87951 5643 ft 270 kts 113°
2026-04-14 03:13 -27.45438 -55.87772 5718 ft 271 kts 113°
2026-04-14 03:14 -27.45803 -55.86939 6063 ft 275 kts 114°
2026-04-14 03:14 -27.46710 -55.85016 6842 ft 281 kts 117°
2026-04-14 03:15 -27.47685 -55.83092 7690 ft 284 kts 118°
2026-04-14 03:15 -27.48704 -55.81171 8523 ft 288 kts 120°
2026-04-14 03:15 -27.49759 -55.79241 9339 ft 292 kts 121°
2026-04-14 03:15 -27.50844 -55.77289 10132 ft 296 kts 122°
2026-04-14 03:16 -27.51977 -55.75273 10532 ft 316 kts 122°
2026-04-14 03:16 -27.53204 -55.73099 10707 ft 341 kts 122°
2026-04-14 03:16 -27.54518 -55.70777 11002 ft 358 kts 122°
2026-04-14 03:16 -27.55874 -55.68384 11590 ft 365 kts 122°
2026-04-14 03:17 -27.57247 -55.65962 12283 ft 369 kts 122°
2026-04-14 03:17 -27.59991 -55.61009 13612 ft 378 kts 117°
2026-04-14 03:17 -27.60946 -55.58234 14192 ft 382 kts 105°
2026-04-14 03:18 -27.61407 -55.55268 14745 ft 387 kts 93°
2026-04-14 03:18 -27.61480 -55.52220 15295 ft 392 kts 90°
2026-04-14 03:18 -27.61484 -55.49131 15830 ft 397 kts 89°
2026-04-14 03:18 -27.61470 -55.45996 16371 ft 401 kts 89°
2026-04-14 03:19 -27.61459 -55.42833 16901 ft 406 kts 89°
2026-04-14 03:19 -27.61456 -55.39629 17433 ft 411 kts 89°
2026-04-14 03:19 -27.61462 -55.36393 17970 ft 415 kts 89°
2026-04-14 03:19 -27.61474 -55.33118 18448 ft 419 kts 89°
2026-04-14 03:20 -27.61490 -55.29819 18930 ft 422 kts 89°
2026-04-14 03:20 -27.61508 -55.26551 19430 ft 424 kts 89°
2026-04-14 03:20 -27.61526 -55.23222 19929 ft 426 kts 89°
2026-04-14 03:20 -27.61544 -55.19875 20407 ft 428 kts 89°
2026-04-14 03:21 -27.61561 -55.16509 20863 ft 431 kts 89°
2026-04-14 03:21 -27.61577 -55.13112 21324 ft 434 kts 89°
2026-04-14 03:21 -27.61592 -55.09701 21775 ft 436 kts 89°
2026-04-14 03:21 -27.61606 -55.06264 22221 ft 439 kts 88°
2026-04-14 03:22 -27.61619 -55.02814 22652 ft 442 kts 88°
2026-04-14 03:22 -27.61632 -54.99341 23067 ft 445 kts 88°
2026-04-14 03:22 -27.61644 -54.95839 23483 ft 447 kts 88°
2026-04-14 03:22 -27.61655 -54.92320 23838 ft 450 kts 89°
2026-04-14 03:23 -27.61665 -54.88775 24156 ft 453 kts 89°
2026-04-14 03:23 -27.61675 -54.85208 24459 ft 457 kts 89°
2026-04-14 03:23 -27.61684 -54.81620 24779 ft 460 kts 89°
2026-04-14 03:23 -27.61692 -54.78005 25096 ft 462 kts 89°
2026-04-14 03:24 -27.61698 -54.74373 25414 ft 465 kts 89°
2026-04-14 03:24 -27.61704 -54.70717 25728 ft 468 kts 90°
2026-04-14 03:24 -27.61710 -54.67036 26049 ft 470 kts 90°
2026-04-14 03:24 -27.61714 -54.63337 26365 ft 473 kts 90°
2026-04-14 03:25 -27.61717 -54.59614 26682 ft 475 kts 90°
2026-04-14 03:25 -27.61719 -54.55878 26990 ft 478 kts 90°
2026-04-14 03:25 -27.61720 -54.52120 27290 ft 481 kts 90°
2026-04-14 03:25 -27.61720 -54.48342 27580 ft 483 kts 90°
2026-04-14 03:26 -27.61719 -54.44592 27857 ft 486 kts 90°
2026-04-14 03:26 -27.61717 -54.40772 28135 ft 489 kts 91°
2026-04-14 03:26 -27.61714 -54.36881 28421 ft 491 kts 91°
2026-04-14 03:26 -27.61710 -54.33019 28696 ft 494 kts 91°
2026-04-14 03:27 -27.61705 -54.29192 28956 ft 496 kts 91°
2026-04-14 03:27 -27.61679 -54.25292 29210 ft 499 kts 89°
2026-04-14 03:27 -27.61528 -54.21370 29470 ft 502 kts 88°
2026-04-14 03:27 -27.61293 -54.17438 29728 ft 504 kts 87°
2026-04-14 03:28 -27.61022 -54.13490 29976 ft 507 kts 86°
2026-04-14 03:28 -27.60743 -54.09506 30190 ft 510 kts 87°
2026-04-14 03:28 -27.60472 -54.05520 30430 ft 511 kts 87°
2026-04-14 03:28 -27.60210 -54.01528 30728 ft 511 kts 87°
2026-04-14 03:29 -27.59958 -53.97534 31033 ft 510 kts 87°
2026-04-14 03:29 -27.59710 -53.93533 31333 ft 511 kts 87°
2026-04-14 03:29 -27.59465 -53.89546 31611 ft 511 kts 88°
2026-04-14 03:29 -27.59219 -53.85544 31907 ft 511 kts 88°
2026-04-14 03:30 -27.58971 -53.81545 32193 ft 512 kts 88°
2026-04-14 03:30 -27.58722 -53.77541 32486 ft 512 kts 88°
2026-04-14 03:30 -27.58470 -53.73535 32778 ft 512 kts 88°
2026-04-14 03:30 -27.58218 -53.69537 33067 ft 512 kts 88°
2026-04-14 03:31 -27.57963 -53.65536 33352 ft 512 kts 88°
2026-04-14 03:31 -27.57708 -53.61530 33633 ft 512 kts 88°
2026-04-14 03:31 -27.57451 -53.57529 33922 ft 512 kts 88°
2026-04-14 03:31 -27.57193 -53.53526 34189 ft 512 kts 88°
2026-04-14 03:32 -27.56934 -53.49530 34405 ft 513 kts 88°
2026-04-14 03:32 -27.56674 -53.45519 34613 ft 513 kts 88°
2026-04-14 03:32 -27.56412 -53.41499 34822 ft 514 kts 88°
2026-04-14 03:32 -27.56148 -53.37477 35042 ft 514 kts 88°
2026-04-14 03:33 -27.55884 -53.33462 35284 ft 514 kts 88°
2026-04-14 03:33 -27.55618 -53.29445 35492 ft 515 kts 88°
2026-04-14 03:33 -27.55351 -53.25418 35700 ft 515 kts 88°
2026-04-14 03:33 -27.55082 -53.21388 35904 ft 515 kts 88°
2026-04-14 03:34 -27.54540 -53.13313 36293 ft 517 kts 88°
2026-04-14 03:34 -27.54268 -53.09285 36502 ft 517 kts 88°
2026-04-14 03:34 -27.53993 -53.05245 36708 ft 517 kts 88°
2026-04-14 03:35 -27.53718 -53.01208 36889 ft 518 kts 88°
2026-04-14 03:35 -27.53444 -52.97213 37075 ft 518 kts 88°
2026-04-14 03:35 -27.53163 -52.93114 37274 ft 518 kts 88°
2026-04-14 03:35 -27.52888 -52.89120 37467 ft 518 kts 88°
2026-04-14 03:36 -27.52580 -52.85067 37648 ft 519 kts 84°
2026-04-14 03:36 -27.51909 -52.81060 37805 ft 522 kts 76°
2026-04-14 03:36 -27.50731 -52.77199 37980 ft 522 kts 66°
2026-04-14 03:36 -27.49272 -52.73457 38231 ft 521 kts 65°
2026-04-14 03:37 -27.47782 -52.69746 38409 ft 520 kts 65°
2026-04-14 03:37 -27.46306 -52.66020 38585 ft 521 kts 66°
2026-04-14 03:37 -27.44865 -52.62279 38733 ft 521 kts 66°
2026-04-14 03:37 -27.43441 -52.58528 38890 ft 521 kts 66°
2026-04-14 03:38 -27.42027 -52.54794 39044 ft 517 kts 66°
2026-04-14 03:38 -27.39194 -52.47363 39079 ft 518 kts 66°
2026-04-14 03:39 -27.36334 -52.39887 39081 ft 522 kts 66°
2026-04-14 03:39 -27.33450 -52.32364 39087 ft 525 kts 66°
2026-04-14 03:40 -27.30548 -52.24804 39086 ft 526 kts 66°
2026-04-14 03:40 -27.27664 -52.17301 39069 ft 518 kts 66°
2026-04-14 03:41 -27.24817 -52.09908 39085 ft 514 kts 66°
2026-04-14 03:41 -27.21983 -52.02563 39094 ft 511 kts 66°
2026-04-14 03:42 -27.19159 -51.95226 39102 ft 513 kts 66°
2026-04-14 03:42 -27.16309 -51.87831 39114 ft 518 kts 66°
2026-04-14 03:43 -27.13414 -51.80390 39121 ft 522 kts 66°
2026-04-14 03:43 -27.10487 -51.72903 39121 ft 525 kts 66°
2026-04-14 03:44 -27.07548 -51.65386 39124 ft 525 kts 66°
2026-04-14 03:44 -27.05123 -51.59191 39113 ft 518 kts 66°
2026-04-14 03:45 -27.02244 -51.51846 39119 ft 513 kts 66°
2026-04-14 03:45 -26.99369 -51.44525 39136 ft 512 kts 66°
2026-04-14 03:46 -26.96499 -51.37232 39142 ft 511 kts 66°
2026-04-14 03:46 -26.93624 -51.29939 39154 ft 512 kts 66°
2026-04-14 03:47 -26.90741 -51.22638 39151 ft 513 kts 66°
2026-04-14 03:47 -26.87847 -51.15324 39159 ft 514 kts 66°
2026-04-14 03:48 -26.84944 -51.07999 39149 ft 515 kts 66°
2026-04-14 03:48 -26.82032 -51.00663 39153 ft 516 kts 66°
2026-04-14 03:49 -26.79111 -50.93320 39157 ft 517 kts 66°
2026-04-14 03:49 -26.76184 -50.85969 39158 ft 518 kts 65°
2026-04-14 03:50 -26.73238 -50.78606 39158 ft 518 kts 65°
2026-04-14 03:50 -26.70297 -50.71303 39158 ft 518 kts 65°
2026-04-14 03:51 -26.67338 -50.63961 39157 ft 517 kts 65°
2026-04-14 03:51 -26.64379 -50.56627 39155 ft 517 kts 65°
2026-04-14 03:52 -26.61449 -50.49301 39159 ft 516 kts 66°
2026-04-14 03:52 -26.58576 -50.41972 39155 ft 515 kts 66°
2026-04-14 03:53 -26.55687 -50.34655 39150 ft 514 kts 66°
2026-04-14 03:53 -26.52739 -50.27381 39154 ft 514 kts 65°
2026-04-14 03:54 -26.49779 -50.20139 39150 ft 513 kts 65°
2026-04-14 03:54 -26.46821 -50.12892 39152 ft 512 kts 65°
2026-04-14 03:55 -26.43874 -50.05668 39154 ft 511 kts 65°
2026-04-14 03:55 -26.40944 -49.98495 39156 ft 511 kts 65°
2026-04-14 03:56 -26.37973 -49.91235 39152 ft 511 kts 65°
2026-04-14 03:56 -26.35037 -49.84072 39158 ft 511 kts 65°
2026-04-14 03:57 -26.32090 -49.76854 39153 ft 512 kts 65°
2026-04-14 03:57 -26.29173 -49.69617 39156 ft 512 kts 66°
2026-04-14 03:58 -26.26251 -49.62382 39137 ft 512 kts 66°
2026-04-14 03:58 -26.23319 -49.55149 39148 ft 512 kts 65°
2026-04-14 03:59 -26.20338 -49.47884 39147 ft 512 kts 65°
2026-04-14 03:59 -26.17378 -49.40720 39149 ft 512 kts 65°
2026-04-14 04:00 -26.14401 -49.33505 39147 ft 512 kts 65°
2026-04-14 04:00 -26.11378 -49.26330 39145 ft 512 kts 64°
2026-04-14 04:01 -26.08373 -49.19146 39142 ft 512 kts 65°
2026-04-14 04:01 -26.05399 -49.11947 39145 ft 512 kts 65°
2026-04-14 04:02 -26.02418 -49.04765 39132 ft 512 kts 65°
2026-04-14 04:02 -25.99436 -48.97584 39138 ft 511 kts 65°
2026-04-14 04:03 -25.96464 -48.90393 39139 ft 511 kts 65°
2026-04-14 04:03 -25.93495 -48.83209 39121 ft 512 kts 66°
2026-04-14 04:04 -25.90535 -48.76021 39112 ft 511 kts 65°
2026-04-14 04:04 -25.87513 -48.68893 39107 ft 510 kts 65°
2026-04-14 04:05 -25.84501 -48.61762 39104 ft 510 kts 65°
2026-04-14 04:05 -25.81501 -48.54633 39089 ft 509 kts 65°
2026-04-14 04:06 -25.78507 -48.47531 39092 ft 508 kts 65°
2026-04-14 04:06 -25.75508 -48.40435 39094 ft 508 kts 65°
2026-04-14 04:07 -25.72505 -48.33345 39095 ft 508 kts 65°
2026-04-14 04:07 -25.69502 -48.26265 39090 ft 508 kts 65°
2026-04-14 04:08 -25.66495 -48.19186 39089 ft 508 kts 65°
2026-04-14 04:08 -25.63482 -48.12104 39089 ft 508 kts 65°
2026-04-14 04:09 -25.60478 -48.05026 39088 ft 508 kts 65°
2026-04-14 04:09 -25.57484 -47.97941 39086 ft 508 kts 65°
2026-04-14 04:10 -25.54482 -47.90849 39089 ft 508 kts 65°
2026-04-14 04:10 -25.51477 -47.83766 39091 ft 508 kts 65°
2026-04-14 04:11 -25.48455 -47.76699 39087 ft 508 kts 64°
2026-04-14 04:11 -25.45408 -47.69653 39089 ft 507 kts 64°
2026-04-14 04:12 -25.42365 -47.62611 39086 ft 507 kts 64°
2026-04-14 04:12 -25.39322 -47.55573 39081 ft 507 kts 64°
2026-04-14 04:13 -25.36286 -47.48541 39085 ft 506 kts 65°
2026-04-14 04:13 -25.33251 -47.41517 39082 ft 506 kts 65°
2026-04-14 04:14 -25.30218 -47.34506 39084 ft 505 kts 64°
2026-04-14 04:14 -25.27202 -47.27548 39084 ft 505 kts 64°
2026-04-14 04:15 -25.24165 -47.20553 39081 ft 504 kts 64°
2026-04-14 04:15 -25.21131 -47.13575 39081 ft 504 kts 64°
2026-04-14 04:16 -25.18096 -47.06605 39082 ft 503 kts 64°
2026-04-14 04:16 -25.15058 -46.99639 39081 ft 503 kts 64°
2026-04-14 04:17 -25.12004 -46.92694 39086 ft 503 kts 64°
2026-04-14 04:17 -25.08928 -46.85776 39079 ft 502 kts 64°
2026-04-14 04:18 -25.05847 -46.78849 39082 ft 502 kts 64°
2026-04-14 04:18 -25.02774 -46.71937 39083 ft 502 kts 64°
2026-04-14 04:19 -24.99698 -46.65032 39081 ft 502 kts 64°
2026-04-14 04:19 -24.96611 -46.58130 39082 ft 502 kts 64°
2026-04-14 04:20 -24.93525 -46.51240 39084 ft 501 kts 64°
2026-04-14 04:20 -24.90436 -46.44350 39079 ft 501 kts 64°
2026-04-14 04:21 -24.87346 -46.37468 39078 ft 501 kts 64°
2026-04-14 04:21 -24.84256 -46.30595 39080 ft 501 kts 64°
2026-04-14 04:22 -24.81164 -46.23729 39078 ft 500 kts 64°
2026-04-14 04:22 -24.78070 -46.16868 39075 ft 500 kts 63°
2026-04-14 04:23 -24.74975 -46.10016 39078 ft 500 kts 63°
2026-04-14 04:23 -24.71882 -46.03178 39076 ft 499 kts 63°
2026-04-14 04:24 -24.68784 -45.96339 39076 ft 499 kts 63°
2026-04-14 04:24 -24.65686 -45.89512 39074 ft 499 kts 63°
2026-04-14 04:25 -24.62701 -45.82942 39075 ft 499 kts 63°
2026-04-14 04:25 -24.59596 -45.76119 39071 ft 499 kts 63°
2026-04-14 04:26 -24.56486 -45.69293 39074 ft 500 kts 63°
2026-04-14 04:26 -24.53576 -45.62916 39071 ft 500 kts 63°
2026-04-14 04:27 -24.50456 -45.56090 39072 ft 500 kts 63°
2026-04-14 04:27 -24.47964 -45.50645 39072 ft 501 kts 63°
2026-04-14 04:28 -24.44827 -45.43799 39075 ft 501 kts 63°
2026-04-14 04:28 -24.41693 -45.36970 39070 ft 501 kts 63°
2026-04-14 04:29 -24.38552 -45.30134 39072 ft 501 kts 63°
2026-04-14 04:29 -24.35408 -45.23303 39071 ft 502 kts 63°
2026-04-14 04:30 -24.32261 -45.16475 39073 ft 502 kts 63°
2026-04-14 04:30 -24.29114 -45.09658 39074 ft 501 kts 63°
2026-04-14 04:31 -24.25979 -45.02877 39077 ft 501 kts 63°
2026-04-14 04:31 -24.21243 -44.92649 39079 ft 502 kts 63°
2026-04-14 04:32 -24.18077 -44.85823 39081 ft 503 kts 63°
2026-04-14 04:32 -24.14882 -44.78946 38489 ft 513 kts 62°
2026-04-14 04:33 -24.13267 -44.75473 37853 ft 511 kts 62°
2026-04-14 04:33 -24.11654 -44.72006 37250 ft 510 kts 62°
2026-04-14 04:33 -24.10057 -44.68544 36654 ft 509 kts 63°
2026-04-14 04:33 -24.08510 -44.65062 36039 ft 509 kts 64°
2026-04-14 04:34 -24.06978 -44.61572 35372 ft 510 kts 63°
2026-04-14 04:34 -24.05435 -44.58077 34671 ft 511 kts 63°
2026-04-14 04:34 -24.03865 -44.54578 33937 ft 514 kts 63°
2026-04-14 04:34 -24.02264 -44.51071 33119 ft 515 kts 63°
2026-04-14 04:35 -24.00647 -44.47554 32201 ft 519 kts 63°
2026-04-14 04:35 -23.99025 -44.44025 31398 ft 519 kts 63°
2026-04-14 04:35 -23.97407 -44.40498 30598 ft 520 kts 63°
2026-04-14 04:35 -23.95793 -44.36972 30013 ft 514 kts 63°
2026-04-14 04:36 -23.94201 -44.33492 29337 ft 510 kts 63°
2026-04-14 04:36 -23.92628 -44.30053 28718 ft 503 kts 63°
2026-04-14 04:36 -23.91068 -44.26650 28127 ft 497 kts 63°
2026-04-14 04:36 -23.89530 -44.23292 27524 ft 492 kts 64°
2026-04-14 04:37 -23.88038 -44.19953 26960 ft 486 kts 64°
2026-04-14 04:37 -23.86581 -44.16636 26386 ft 481 kts 65°
2026-04-14 04:37 -23.85138 -44.13356 25822 ft 477 kts 65°
2026-04-14 04:37 -23.83701 -44.10115 25263 ft 472 kts 63°
2026-04-14 04:38 -23.81847 -44.07180 24662 ft 469 kts 45°
2026-04-14 04:38 -23.79305 -44.05003 24112 ft 463 kts 28°
2026-04-14 04:38 -23.76377 -44.03587 23488 ft 458 kts 14°
2026-04-14 04:38 -23.73263 -44.03028 22860 ft 450 kts
2026-04-14 04:39 -23.70159 -44.02858 22279 ft 444 kts 360°
2026-04-14 04:39 -23.67090 -44.02733 21710 ft 439 kts 360°
2026-04-14 04:39 -23.64051 -44.02593 21151 ft 435 kts
2026-04-14 04:39 -23.61058 -44.02423 20617 ft 431 kts
2026-04-14 04:40 -23.58081 -44.02233 20074 ft 426 kts
2026-04-14 04:40 -23.55171 -44.02043 19549 ft 422 kts
2026-04-14 04:40 -23.52247 -44.01852 19005 ft 419 kts
2026-04-14 04:41 -23.46459 -44.01481 17861 ft 413 kts
2026-04-14 04:41 -23.43603 -44.01299 17309 ft 409 kts
2026-04-14 04:41 -23.40776 -44.01118 16766 ft 405 kts
2026-04-14 04:41 -23.37978 -44.00940 16238 ft 401 kts
2026-04-14 04:42 -23.35208 -44.00763 15723 ft 397 kts
2026-04-14 04:42 -23.32466 -44.00588 15184 ft 393 kts
2026-04-14 04:42 -23.29749 -44.00415 14693 ft 389 kts
2026-04-14 04:42 -23.27194 -44.00251 14227 ft 386 kts
2026-04-14 04:43 -23.24521 -44.00081 13688 ft 383 kts
2026-04-14 04:43 -23.21897 -43.99914 13566 ft 368 kts
2026-04-14 04:43 -23.19387 -43.99754 13551 ft 355 kts
2026-04-14 04:43 -23.16975 -43.99233 13529 ft 362 kts 25°
2026-04-14 04:44 -23.14944 -43.97611 13551 ft 369 kts 51°
2026-04-14 04:44 -23.13728 -43.95171 13550 ft 367 kts 75°
2026-04-14 04:44 -23.13429 -43.92444 13310 ft 364 kts 94°
2026-04-14 04:44 -23.13503 -43.89739 13207 ft 354 kts 84°
2026-04-14 04:45 -23.12831 -43.87227 13127 ft 342 kts 64°
2026-04-14 04:45 -23.11535 -43.85130 13054 ft 329 kts 54°
2026-04-14 04:45 -23.10289 -43.83108 12973 ft 316 kts 59°
2026-04-14 04:45 -23.09173 -43.81096 12892 ft 305 kts 60°
2026-04-14 04:46 -23.08121 -43.79138 12784 ft 295 kts 61°
2026-04-14 04:46 -23.07097 -43.77223 12540 ft 292 kts 60°
2026-04-14 04:46 -23.06078 -43.75324 12205 ft 291 kts 60°
2026-04-14 04:46 -23.05057 -43.73430 11916 ft 290 kts 60°
2026-04-14 04:47 -23.04055 -43.71576 11630 ft 288 kts 60°
2026-04-14 04:47 -23.03051 -43.69698 11340 ft 286 kts 63°
2026-04-14 04:47 -23.02160 -43.67741 11042 ft 285 kts 65°
2026-04-14 04:47 -23.01330 -43.65797 10770 ft 283 kts 66°
2026-04-14 04:48 -23.00500 -43.63864 10489 ft 282 kts 65°
2026-04-14 04:48 -22.99681 -43.61968 10225 ft 280 kts 65°
2026-04-14 04:48 -22.98836 -43.60036 9948 ft 279 kts 65°
2026-04-14 04:48 -22.98006 -43.58144 9641 ft 278 kts 65°
2026-04-14 04:49 -22.97176 -43.56255 9354 ft 276 kts 65°
2026-04-14 04:49 -22.96364 -43.54409 9080 ft 274 kts 65°
2026-04-14 04:49 -22.95544 -43.52547 8789 ft 273 kts 65°
2026-04-14 04:49 -22.94731 -43.50697 8463 ft 270 kts 65°
2026-04-14 04:50 -22.93958 -43.48886 8376 ft 258 kts 66°
2026-04-14 04:50 -22.93222 -43.47144 8288 ft 242 kts 66°
2026-04-14 04:50 -22.92551 -43.45554 8271 ft 222 kts 66°
2026-04-14 04:50 -22.91930 -43.44083 8158 ft 206 kts 66°
2026-04-14 04:51 -22.91363 -43.42742 7913 ft 193 kts 65°
2026-04-14 04:51 -22.90802 -43.41416 7367 ft 195 kts 65°
2026-04-14 04:51 -22.90237 -43.40082 6872 ft 194 kts 65°
2026-04-14 04:51 -22.89676 -43.38758 6395 ft 193 kts 65°
2026-04-14 04:52 -22.89141 -43.37498 6183 ft 176 kts 65°
2026-04-14 04:52 -22.88630 -43.36295 5774 ft 174 kts 65°
2026-04-14 04:52 -22.88145 -43.35099 5377 ft 172 kts 69°
2026-04-14 04:52 -22.87759 -43.33910 5093 ft 161 kts 71°
2026-04-14 04:53 -22.87398 -43.32770 4695 ft 159 kts 71°
2026-04-14 04:53 -22.87040 -43.31641 4282 ft 158 kts 70°
2026-04-14 04:53 -22.86684 -43.30527 3887 ft 155 kts 70°
2026-04-14 04:53 -22.86338 -43.29445 3505 ft 154 kts 70°
2026-04-14 04:54 -22.85982 -43.28337 3118 ft 152 kts 70°
2026-04-14 04:54 -22.85633 -43.27250 2703 ft 150 kts 70°
2026-04-14 04:54 -22.85483 -43.26150 2250 ft 152 kts 98°
2026-04-14 04:54 -22.85674 -43.25052 2067 ft 148 kts 96°
2026-04-14 04:55 -22.85828 -43.23939 1889 ft 151 kts 96°
2026-04-14 04:55 -22.85982 -43.22823 1625 ft 146 kts 97°
2026-04-14 04:55 -22.86133 -43.21743 1546 ft 146 kts 97°
2026-04-14 04:55 -22.86286 -43.20650 1493 ft 144 kts 97°
2026-04-14 04:56 -22.86437 -43.19574 1503 ft 145 kts 97°
2026-04-14 04:56 -22.86730 -43.18536 1422 ft 149 kts 123°
2026-04-14 04:56 -22.87439 -43.17697 1243 ft 151 kts 131°
2026-04-14 04:56 -22.88157 -43.16882 969 ft 150 kts 141°
2026-04-14 04:57 -22.89127 -43.16385 516 ft 159 kts 171°
2026-04-14 04:57 -22.90208 -43.16327 192 ft 154 kts 174°
2026-04-14 04:57 -22.91174 -43.16266 18 ft 101 kts 177°
2026-04-14 04:57 -22.91573 -43.16323 15 ft 20 kts 283°
2026-04-14 04:58 -22.91495 -43.16408 16 ft 19 kts 317°
2026-04-14 04:58 -22.91396 -43.16499 17 ft 15 kts 346°
2026-04-14 04:58 -22.91319 -43.16517 17 ft 3 kts 297°
2026-04-14 04:58 -22.91319 -43.16557 17 ft 6 kts 268°
2026-04-14 04:59 -22.91320 -43.16568 17 ft 0 kts 264°